Погода в Маме

Погода в Маме : погода сейчас, прогноз погоды и архив. Всё, что Вы хотите узнать о погоде в Маме!

Поиск расширенной информации на нашем сайте:

Другие новости

Новости СМИ2

Главная страница сайта

Новости сайта

03.07.2017

Напоминаем, что на нашем специализированном сайте Метеоцентр.Азия вы можете получить высокодетализированные автоматические прогнозы погоды по пунктам России, СНГ и мира в авиационном формате (включающие направление и скорость ветра, видимость, явления погоды, количество и форму облачности, нижнюю и верхнюю границу облачности).

Рекомендуем: Подбор авто.

Погода в Маме - сегодня

Время (UTC), дата Ветер
(°,м/с) 
Видим.   Явления Облачность Т
(°С)
Тd
(°С)
f(%) Тe
(°С)
Pmin
(гПа)
dP
(гПа)
Po
(мм)
O2
(г/м3)
Тmin Tmax R s Состояние
почвы
09 17.04.18 130 (ЮВ) 20000 м    10/4 1500 м верхняя 
[Cu med, cong|Ci fib]
+9.7 -7.1 30 +9  1004  -1.6  733  286           
15 17.04.18 тихо ()   20000 м    3/0 верхняя 
[Ci fib]
+0.3 -3.4 76 1004.4  -0.1  733  295           
18 17.04.18 тихо ()   20000 м    5/0 средняя, верхняя 
[Ac lent|Ci fib]
+2.1 -4.7 61 +2  1003.1  -1.1  732  293           
21 17.04.18 120 (ЮВ) 20000 м    10/5 1000 м кучево-дожд., средняя, верхняя 
[Cb cap|Ac trans|Ci fib]
+1.8 -3.6 67 +1  1003.3  0.1  732  293           
03 18.04.18 140 (ЮВ) 20000 м    10/6 1380 м кучево-дожд., средняя, верхняя 
[Cb cap|Ac trans|Ci ing]
+5.4 -3.4 53 +6  1001.1  -1.7  731  289           
15 18.04.18 180 (Ю) 20000 м    4/0 верхняя 
[Ci fib]
+1.1 -6.9 55 1009.3  2.6  736  296           
03 19.04.18 220 (ЮЗ) 20000 м    10/5 1000 м кучево-дожд., верхняя 
[Cb cap|Ci ing]
+2.8 -8.8 42 +1  1014.9  740  296           
09 19.04.18 320 (СЗ) 4{10}  20000 м    10/5 1000 м кучево-дожд., верхняя 
[Cb cap|Ci fib]
+2.1 -6.7 52 1014.6  0.3  740  297           
15 19.04.18 110 (В) 20000 м    3/0 верхняя 
[Ci fib]
-2.4 -8 65 -3    1.3  742  302           
18 19.04.18 140 (ЮВ) 20000 м    5/0 верхняя 
[Ci fib]
-4.8 -7.2 83 -4  1018.8  1.3  743  305           
21 19.04.18 120 (ЮВ) 20000 м    8/0 средняя, верхняя 
[Ac trans|Ci fib]
-4.2 -7.6 77 -5  1019.6  0.8  743  305           
03 20.04.18 270 (З) 20000 м  {ливн. осадки}  10/4 1000 м кучево-дожд., верхняя 
[Cb cap|Ci fib]
+0.2 -9.1 50 -1  1021.9  0.7  745  301           
09 20.04.18 340 (С) 20000 м    5/5 1500 м 
[Cu med, cong]
+3.3 -10.5 36 +4  1021  -0.4  745  298           
15 20.04.18 тихо ()   20000 м    ясно 
-4.8 -7.8 79 -5  1023.4  1.3  746  307           
18 20.04.18 тихо ()   20000 м    ясно 
-6.2 -8.6 83 -6  1024.4  747  309           
21 20.04.18 150 (ЮВ) 20000 м    3/0 верхняя 
[Ci fib]
-7.3 -9.8 82 -9  1025.9  1.2  748  311           
03 21.04.18 140 (ЮВ) 20000 м    10/0 верхняя 
[Cs]
+2.2 -7.8 48 +3  1024.3  -1.3  747  299           
06 21.04.18 230 (ЮЗ) 20000 м    4/0 верхняя 
[Ci fib]
+8.5 -7.1 32 +7  1021.7  -1.9  746  292           
09 21.04.18 290 (З) 3{10}  20000 м    6/0 средняя, верхняя 
[Ac lent|Ci fib]
+8.1 -9.4 28 +7  1020.8  -1  745  292           
15 21.04.18 160 (Ю) 20000 м    10/0 средняя, верхняя 
[Ac trans|Ci fib]
+0.1 -3.9 74 +1  1022.7  0.8  746  301           
18 21.04.18 110 (В) 20000 м    10/0 средняя, верхняя 
[Ac trans|Ci fib]
-1.1 -4.1 80 -1  1023.4  0.5  746  302           
21 21.04.18 тихо ()   20000 м    10/0 средняя, верхняя 
[Ac lent|Ci fib]
-0.3 -4.3 74 -0  1023.4  0.1  746  302           
03 22.04.18 150 (ЮВ) 20000 м    10/0 средняя, верхняя 
[Ac lent|Cs]
+6.3 -4.8 45 +6  1020.8  -1.9  745  294           
06 22.04.18 300 (СЗ) 20000 м    10/3 1000 м кучево-дожд., средняя, верхняя 
[Cb cap|Ac trans|Ci fib]
+13.1 -4 30 +13  1018.2  -1.8  744  286           
09 22.04.18 170 (Ю) 20000 м    9/0 средняя, верхняя 
[Ac lent|Ci fib]
+14.3 -4.6 27 +14  1016.4  -1.7  742  285           
Время (UTC), дата Ветер
(°,м/с) 
Видим.   Явления Облачность Т
(°С)
Тd
(°С)
f(%) Тe
(°С)
Pmin
(гПа)
dP
(гПа)
Po
(мм)
O2
(г/м3)
Тmin Tmax R s Состояние
почвы

Для получения пояснительной информации подведите курсор к названию столбца.

ПОГОДА в Маме - архив

Всё, что Вы хотите узнать о погоде в Маме - удобно и подробно!

Выберите нужную дату (начиная с 1 января 2015* года) и нажмите кнопку "Найти".
Будут отображены архивные сводки погоды по пункту Мама, начиная с указанной даты.


Отображать данные в формате CSV (для использования в таблицах Excel)


Внимание! Наш архив погоды предназначен исключительно для личного некоммерческого использования в познавательных целях. Если Вам необходимы официальные справки о состоянии погоды (для производственных, юридических, коммерческих и т.п. целей), обращайтесь в органы Росгидромета.

*Примечание: данная дата относится к архиву по метеостанциям СССР (Россия, СНГ, Балтия).
Архив по метеостанциям Зарубежной Европы и Азии (кроме Китая) хранится 10 дней, по другим регионам земного шара (Китай, Африка, Америка, Австралия, Океания) - 1 день.

Мама - район местоположения метеостанции


Название, широта, долгота, высота метеостанции:
Мама 58.3°ш. 112.9°д. 224 м над ур. моря [Российская Федерация]

Дополнительная информация

В oтличие oт бoльшинства пoгoдных сайтoв мы публикуем пoдрoбную метеoинфoрмацию в детальнoм прoфессиoнальнoм фoрмате.

Характеристики температуры и влажнoсти вoздуха измеряются на высoте 2 м в тени вдали oт зданий и деревьев.
Скoрoсть ветра измеряется на высoте 10 м (на урoвне рoста челoвека скoрoсть ветра ниже в 1.5-2 раза). Если метеoстанция нахoдится в гoрoде или в лесу, тo скoрoсть ветра занижена на 2-4 м/с пo сравнению с oткрытым местoм. Скoрoсть ветра над акватoриями крупных рек и oзёр, а также на вершинах хoлмoв на 2-5 м/с выше, чем в oбычных услoвиях.
Атмoсфернoе давление в разных тoчках местнoсти мoжет значительнo oтличаться oт давления на метеoстанции, в зависимoсти oт услoвий рельефа (при пoдъёме на 10 м давление пoнижается примернo на 1 мм рт.ст.).